STARLINK-32799, 62847

Orbit data source: Space-Track

STARLINK-32799, 62847 is a payload satellite owned by SpaceX/Seattle (US) in LEO that was launched on Mon, 27 Jan 2025 UTC via an FALCON 9 launch vehicle from the Air Force Eastern Test Range (AFETR). Payload-class satellites include a variety of spacecraft equipped with specific instruments for various scientific and technological missions. These include communications satellites like Starlink; space stations such as the ISS; scientific satellites like the Hubble; Earth observation satellites from companies like Planet Labs, Umbra, and HawkEye 360; GPS; miniature CubeSats for education and research; and military/defense satellites.

Loading next visibility...
Identifier
62847, 2025-019U
Orbit
LEO
Country
Flag of USUS
Related business
Manufacturer
SpaceX/Seattle
Mission
Operational spacecraft
Bus & Motor
STARLINK V2M, Unknown motor
Mass
730 kg wet, ~700 kg dry
Launch date (UTC)
2025-01-27 (10 months ago)
Launch vehicle
FALCON 9
Launch site
Air Force Eastern Test Range (AFETR)
Object type
Payload
Rocket body
Debris
Shape & HBR
Unknown shape, 17.7 m
Radar Cross Section
Large (>1 m²)

Expand to show TLE details & history
Last TLE update: 16 hours ago

TLE from 16 hours ago
0 STARLINK-32799
1 62847U 25019U   25341.10745529  .00027033  00000-0  98794-3 0  9997
2 62847  43.0027 251.6639 0002363 260.3998  99.6587 15.27589937 48099
Epoch: 2025-12-07T02:34Z
TLE epoch observation values (Epoch: 2025-12-07T02:34:44.137Z)
Latitude
0.00002°
Longitude
136.85443°
Altitude
483.067 km
Speed
7.626 km/s
True Right ascension
16h 46m 39s
True Declination
0° 00' 00"
Sunlit
Object was in daylight at epoch
Visualization orbit readout
Latitude
Unknown
Longitude
Unknown
Altitude
Unknown
Speed
Unknown
Apparent Right ascension
Unknown
Apparent Declination
Unknown
Sunlit
N/A
Visualization observer readout
Local Sidereal Time
16:19:07
Azimuth
Unknown
Elevation
Unknown
Doppler factor
Unknown
Orbital elements
Apogee altitude
486.586 km
Perigee altitude
483.342 km
Semi-major axis
6,863.101 km
Eccentricity
0.00024
Inclination
43.0027°
RAAN
251.6639°
Arg. of periapsis
260.3998°
True anomaly
99.68539°
Mean anomaly
99.6587°
Eccentric anomaly
99.67205°
Mean motion
3.81736 °/min
Orbital period
94.31 mins
BSTAR
0.00098794
Loading maneuver chart data...
Computing Atmospheric mass density...
Loading historical data...
Loading historical data...
Loading historical data...
Loading historical data...
Loading historical data...
Loading historical data...
Loading historical data...

Documentation

Showing up to 5 results
|